Flag for Germany Weather past 2 weeks in Karlsruhe, Baden-Württemberg, Germany

Now
61 °F

Scattered clouds.


Feels Like: 61 °F
Forecast: 49 / 60 °F
Wind: 8 mph from Southwest

Location: Karlsruhe - Baden Wurttemberg

Current Time: May 25, 2015 at 9:34:06 AM

Latest Report: May 25, 2015 at 8:50 AM


Visibility: N/A

Pressure: 30.01 "Hg

Humidity: 68%

Dew point: 50 °F

Location of KarlsruheLocation

Historic Weather in Karlsruhe — Graph

°F

Karlsruhe temperature yesterday

Maximum temperature yesterday: 72 °F (at 3:20 PM)
Minimum temperature yesterday: 55 °F (at 5:50 AM)
Average temperature yesterday: 64 °F

Past Weeks' High & Low Weather Summary

 TemperatureHumidityPressure
High84 °F (May 12, 2:20 PM)94% (May 11, 4:50 AM)30.36 "Hg (May 11, 4:50 AM)
Low39 °F (May 22, 4:50 AM)26% (May 22, 4:50 PM)29.71 "Hg (May 18, 7:50 PM)
Average61 °F60%30.08 "Hg
* Reported May 10 8:20 AM — May 25 8:20 AM, Karlsruhe, Weather by CustomWeather, © 2015

Note: Actual official high and low records may vary slightly from our data, if they occured in-between our weather recording intervals... More about our weather records

Advertising

Karlsruhe weather history for previous 24 hours

 ConditionsComfort  
Time TempWeatherWind HumidityBarometerVisibility
8:20 AM
Mon, May 25
59 °FScattered clouds.7 mph72%29.98 "HgN/A
7:50 AM59 °FSunny.6 mph72%29.98 "Hg10 mi
7:20 AM57 °FSunny.6 mph77%30.01 "Hg10 mi
6:50 AM57 °FSunny.6 mph72%30.01 "Hg10 mi
6:20 AM55 °FClear.6 mph77%30.01 "Hg10 mi
5:50 AM55 °FClear.6 mph77%29.98 "Hg10 mi
5:20 AM55 °FPassing clouds.5 mph77%29.98 "HgN/A
4:50 AM57 °FClear.6 mph72%29.98 "Hg10 mi
2:20 AM57 °FClear.1 mph77%30.01 "Hg10 mi
11:20 PM
Sun, May 24
59 °FClear.2 mph77%30.04 "Hg10 mi
10:20 PM63 °FClear.2 mph64%30.04 "Hg10 mi
9:50 PM63 °FClear.1 mph64%30.01 "Hg6 mi
9:20 PM63 °FSunny.1 mph64%30.01 "Hg10 mi
8:50 PM63 °FSunny.2 mph64%30.01 "Hg10 mi
8:20 PM64 °FSunny.2 mph60%30.01 "Hg10 mi
7:50 PM66 °FSunny.5 mph52%30.01 "Hg10 mi
7:20 PM66 °FSunny.2 mph52%30.01 "Hg10 mi
6:50 PM68 °FScattered showers. Scattered clouds.5 mph43%30.01 "HgN/A
6:20 PM68 °FScattered showers. Scattered clouds.3 mph43%30.01 "HgN/A
5:50 PM68 °FSunny.7 mph46%30.04 "Hg10 mi
5:20 PM70 °FSunny.7 mph43%30.04 "Hg10 mi
4:50 PM70 °FScattered clouds.6 mph46%30.04 "HgN/A
4:20 PM70 °FScattered clouds.6 mph43%30.04 "HgN/A
3:50 PM70 °FMild.6 mph46%30.04 "HgN/A
3:20 PM72 °FPassing clouds.8 mph44%30.04 "HgN/A
2:50 PM70 °FPassing clouds.8 mph46%30.04 "HgN/A
2:20 PM70 °FPassing clouds.8 mph46%30.04 "HgN/A
1:50 PM70 °FMild.9 mph50%30.07 "HgN/A
1:20 PM68 °FPassing clouds.10 mph56%30.07 "HgN/A
12:50 PM68 °FSunny.12 mph56%30.07 "Hg10 mi
12:20 PM66 °FPassing clouds.10 mph60%30.07 "HgN/A
11:50 AM66 °FSunny.9 mph60%30.07 "Hg10 mi
11:20 AM64 °FPassing clouds.8 mph64%30.07 "HgN/A
10:50 AM63 °FPassing clouds.10 mph68%30.07 "HgN/A
10:20 AM63 °FSunny.9 mph68%30.07 "Hg10 mi
9:50 AM61 °FSunny.8 mph72%30.07 "Hg10 mi
9:20 AM61 °FSunny.8 mph72%30.07 "Hg10 mi
Weather by CustomWeather, © 2015

See weather overviewHow to use our weather pages